When you browse on this site, cookies collect data to enhance your experience and personalize the content and advertising you see.
Visit our Privacy Policy to learn more. By continuing to use the site, you agree to this use of cookies and data.

Meteo orario Klagenfurt

Oggi, 25 Settembre, Venerdi

Tempo Temperatura Precipitazioni Vento Pressione Umidità
00:00 +14°C° 2.3 mm 2 m/s 682 mm Hg 98%
01:00 +14°C° 2.3 mm 2 m/s 682 mm Hg 98%
02:00 +14°C° 3.9 mm 2 m/s 681 mm Hg 98%
03:00 +14°C° 3.9 mm 1 m/s 680 mm Hg 98%
04:00 +14°C° 3.9 mm 1 m/s 680 mm Hg 98%
05:00 +13°C° 3.7 mm 1 m/s 679 mm Hg 98%
06:00 +13°C° 3.7 mm 1 m/s 679 mm Hg 98%
07:00 +13°C° 3.7 mm 1 m/s 678 mm Hg 98%
08:00 +13°C° 0.8 mm 1 m/s 678 mm Hg 98%
09:00 +14°C° 0.8 mm 1 m/s 678 mm Hg 97%
10:00 +14°C° 0.8 mm 1 m/s 678 mm Hg 97%
11:00 +15°C° 1.3 mm 1 m/s 678 mm Hg 95%
12:00 +15°C° 1.3 mm 2 m/s 678 mm Hg 94%
13:00 +15°C° 1.3 mm 2 m/s 678 mm Hg 93%
14:00 +15°C° 1.2 mm 2 m/s 677 mm Hg 92%
15:00 +15°C° 1.2 mm 2 m/s 677 mm Hg 90%
16:00 +15°C° 1.2 mm 1 m/s 676 mm Hg 89%
17:00 +14°C° 4.4 mm 2 m/s 676 mm Hg 92%
18:00 +12°C° 4.4 mm 2 m/s 675 mm Hg 94%
19:00 +10°C° 4.4 mm 2 m/s 674 mm Hg 97%
20:00 +9°C° 2.3 mm 2 m/s 674 mm Hg 97%
21:00 +8°C° 2.3 mm 2 m/s 674 mm Hg 97%
22:00 +9°C° 2.3 mm 1 m/s 674 mm Hg 97%
23:00 +7°C° 0.6 mm 2 m/s 674 mm Hg 97%

Domani, 26 Settembre, Sabato

Tempo Temperatura Precipitazioni Vento Pressione Umidità
00:00 +6°C° 0.6 mm 2 m/s 673 mm Hg 96%
01:00 +4°C° 0.6 mm 2 m/s 673 mm Hg 96%
02:00 +4°C° 1.1 mm 2 m/s 673 mm Hg 96%
03:00 +4°C° 1.1 mm 2 m/s 673 mm Hg 96%
04:00 +3°C° 1.1 mm 2 m/s 673 mm Hg 96%
05:00 +3°C° 0.2 mm 2 m/s 673 mm Hg 95%
06:00 +5°C° 0.2 mm 1 m/s 673 mm Hg 95%
07:00 +5°C° 0.2 mm 1 m/s 673 mm Hg 95%
08:00 +6°C° 0.1 mm 1 m/s 674 mm Hg 91%
09:00 +7°C° 0.1 mm 1 m/s 675 mm Hg 88%
10:00 +7°C° 0.1 mm 0 m/s 676 mm Hg 85%
11:00 +8°C° 0.1 mm 0 m/s 676 mm Hg 79%
12:00 +9°C° 0.1 mm 0 m/s 677 mm Hg 73%
13:00 +11°C° 0.1 mm 1 m/s 677 mm Hg 67%
14:00 +11°C° 0.3 mm 1 m/s 677 mm Hg 69%
15:00 +10°C° 0.3 mm 1 m/s 677 mm Hg 72%
16:00 +10°C° 0.3 mm 1 m/s 678 mm Hg 74%
17:00 +9°C° 0.2 mm 1 m/s 678 mm Hg 79%
18:00 +7°C° 0.2 mm 1 m/s 678 mm Hg 85%
19:00 +6°C° 0.2 mm 1 m/s 678 mm Hg 90%
20:00 +6°C° 0 mm 1 m/s 679 mm Hg 91%
21:00 +4°C° 0 mm 0 m/s 679 mm Hg 93%
22:00 +3°C° 0 mm 0 m/s 679 mm Hg 94%
23:00 +3°C° 0 mm 0 m/s 679 mm Hg 95%

Dopodomani, 27 Settembre, Domenica

Tempo Temperatura Precipitazioni Vento Pressione Umidità
00:00 +4°C° 0 mm 1 m/s 679 mm Hg 95%
01:00 +4°C° 0 mm 1 m/s 680 mm Hg 96%
02:00 +3°C° 0 mm 0 m/s 680 mm Hg 95%
03:00 +3°C° 0 mm 0 m/s 680 mm Hg 95%
04:00 +2°C° 0 mm 0 m/s 680 mm Hg 94%
05:00 +3°C° 0 mm 0 m/s 680 mm Hg 94%
06:00 +3°C° 0 mm 0 m/s 680 mm Hg 93%
07:00 +3°C° 0 mm 0 m/s 680 mm Hg 92%
08:00 +5°C° 0 mm 0 m/s 680 mm Hg 87%
09:00 +7°C° 0 mm 0 m/s 681 mm Hg 81%
10:00 +9°C° 0 mm 0 m/s 681 mm Hg 76%
11:00 +10°C° 0.1 mm 1 m/s 681 mm Hg 73%
12:00 +11°C° 0.1 mm 1 m/s 681 mm Hg 70%
13:00 +12°C° 0.1 mm 1 m/s 681 mm Hg 67%
14:00 +12°C° 0.1 mm 1 m/s 682 mm Hg 69%
15:00 +11°C° 0.1 mm 1 m/s 682 mm Hg 71%
16:00 +11°C° 0.1 mm 1 m/s 682 mm Hg 73%
17:00 +9°C° 0 mm 1 m/s 682 mm Hg 79%
18:00 +8°C° 0 mm 1 m/s 682 mm Hg 86%
19:00 +6°C° 0 mm 1 m/s 682 mm Hg 92%
20:00 +6°C° 0 mm 1 m/s 682 mm Hg 93%
21:00 +5°C° 0 mm 1 m/s 683 mm Hg 93%
22:00 +5°C° 0 mm 1 m/s 683 mm Hg 94%
23:00 +5°C° 0 mm 1 m/s 683 mm Hg 94%

28 Settembre, Lunedi

Tempo Temperatura Precipitazioni Vento Pressione Umidità
00:00 +5°C° 0 mm 1 m/s 683 mm Hg 94%
01:00 +5°C° 0 mm 1 m/s 684 mm Hg 94%
02:00 +5°C° 0 mm 1 m/s 683 mm Hg 94%
03:00 +5°C° 0 mm 1 m/s 683 mm Hg 94%
04:00 +4°C° 0 mm 1 m/s 683 mm Hg 94%
05:00 +5°C° 0 mm 1 m/s 684 mm Hg 93%
06:00 +5°C° 0 mm 1 m/s 684 mm Hg 93%
07:00 +5°C° 0 mm 1 m/s 684 mm Hg 92%
08:00 +8°C° 0 mm 1 m/s 684 mm Hg 84%
09:00 +10°C° 0 mm 1 m/s 685 mm Hg 75%
10:00 +13°C° 0 mm 1 m/s 685 mm Hg 67%
11:00 +14°C° 0 mm 1 m/s 685 mm Hg 64%
12:00 +15°C° 0 mm 1 m/s 685 mm Hg 60%
13:00 +16°C° 0 mm 1 m/s 685 mm Hg 56%
14:00 +15°C° 0 mm 1 m/s 685 mm Hg 60%
15:00 +14°C° 0 mm 1 m/s 685 mm Hg 64%
16:00 +13°C° 0 mm 0 m/s 685 mm Hg 67%
17:00 +12°C° 0 mm 1 m/s 685 mm Hg 74%
18:00 +10°C° 0 mm 1 m/s 685 mm Hg 81%
19:00 +9°C° 0 mm 1 m/s 686 mm Hg 88%
20:00 +8°C° 0 mm 1 m/s 686 mm Hg 88%
21:00 +8°C° 0 mm 1 m/s 686 mm Hg 89%
22:00 +7°C° 0 mm 1 m/s 686 mm Hg 89%
23:00 +7°C° 0 mm 1 m/s 686 mm Hg 89%

29 Settembre, Martedi

Tempo Temperatura Precipitazioni Vento Pressione Umidità
00:00 +7°C° 0 mm 1 m/s 686 mm Hg 89%
01:00 +7°C° 0 mm 1 m/s 687 mm Hg 89%
02:00 +7°C° 0 mm 1 m/s 687 mm Hg 89%
03:00 +7°C° 0 mm 1 m/s 687 mm Hg 88%
04:00 +6°C° 0 mm 1 m/s 687 mm Hg 88%
05:00 +7°C° 0 mm 1 m/s 687 mm Hg 86%
06:00 +8°C° 0 mm 1 m/s 687 mm Hg 85%
07:00 +8°C° 0 mm 1 m/s 688 mm Hg 83%
08:00 +11°C° 0 mm 1 m/s 688 mm Hg 76%
09:00 +13°C° 0 mm 1 m/s 689 mm Hg 70%
10:00 +15°C° 0 mm 1 m/s 690 mm Hg 64%
11:00 +18°C° 0 mm 1 m/s 690 mm Hg 61%
12:00 +19°C° 0 mm 1 m/s 690 mm Hg 58%
13:00 +20°C° 0 mm 1 m/s 691 mm Hg 55%
14:00 +19°C° 0 mm 1 m/s 690 mm Hg 61%
15:00 +18°C° 0 mm 1 m/s 690 mm Hg 66%
16:00 +18°C° 0 mm 1 m/s 690 mm Hg 72%
17:00 +15°C° 0 mm 1 m/s 690 mm Hg 78%
18:00 +13°C° 0 mm 1 m/s 689 mm Hg 85%
19:00 +11°C° 0 mm 1 m/s 689 mm Hg 91%
20:00 +11°C° 0 mm 1 m/s 689 mm Hg 91%
21:00 +11°C° 0 mm 1 m/s 690 mm Hg 91%
22:00 +11°C° 0 mm 1 m/s 690 mm Hg 92%
23:00 +10°C° 0.2 mm 0 m/s 690 mm Hg 92%

30 Settembre, Mercoledi

Tempo Temperatura Precipitazioni Vento Pressione Umidità
00:00 +10°C° 0.2 mm 0 m/s 689 mm Hg 92%
01:00 +10°C° 0.2 mm 0 m/s 689 mm Hg 92%
02:00 +9°C° 0.3 mm 0 m/s 689 mm Hg 93%
03:00 +9°C° 0.3 mm 0 m/s 689 mm Hg 93%
04:00 +9°C° 0.3 mm 0 m/s 688 mm Hg 94%
05:00 +9°C° 0.2 mm 0 m/s 688 mm Hg 93%
06:00 +9°C° 0.2 mm 0 m/s 688 mm Hg 93%
07:00 +9°C° 0.2 mm 0 m/s 688 mm Hg 93%
08:00 +10°C° 0 mm 0 m/s 688 mm Hg 89%
09:00 +11°C° 0 mm 0 m/s 688 mm Hg 84%
10:00 +13°C° 0 mm 0 m/s 688 mm Hg 80%
11:00 +14°C° 0 mm 0 m/s 688 mm Hg 76%
12:00 +16°C° 0 mm 1 m/s 688 mm Hg 72%
13:00 +18°C° 0 mm 1 m/s 687 mm Hg 67%
14:00 +16°C° 0 mm 1 m/s 687 mm Hg 69%
15:00 +16°C° 0 mm 1 m/s 687 mm Hg 71%
16:00 +16°C° 0 mm 1 m/s 686 mm Hg 73%
17:00 +14°C° 0 mm 1 m/s 686 mm Hg 79%
18:00 +13°C° 0 mm 1 m/s 686 mm Hg 86%
19:00 +11°C° 0 mm 1 m/s 685 mm Hg 92%
20:00 +11°C° 0 mm 1 m/s 686 mm Hg 93%
21:00 +10°C° 0 mm 1 m/s 686 mm Hg 93%
22:00 +10°C° 0 mm 1 m/s 686 mm Hg 94%
23:00 +9°C° 0 mm 1 m/s 685 mm Hg 94%
Mostrare altro